Time,TemperatureF,DewpointF,PressureIn,WindDirection,WindDirectionDegrees,WindSpeedMPH,WindSpeedGustMPH,Humidity,HourlyPrecipIn,Conditions,Clouds,dailyrainin,SoftwareType,DateUTC
2013-02-10 00:02:00,24.0,21.0,29.01,SW,227,0.0,1.0,87,0.00,,,0.01,,2013-02-10 09:02:00,
2013-02-10 00:11:00,24.0,21.0,29.01,SW,227,0.0,1.0,87,0.00,,,0.01,,2013-02-10 09:11:00,
2013-02-10 00:21:00,24.0,21.0,29.00,SW,227,0.0,0.0,87,0.00,,,0.01,,2013-02-10 09:21:00,
2013-02-10 00:31:00,24.0,21.0,29.00,SW,227,0.0,0.0,87,0.00,,,0.01,,2013-02-10 09:31:00,
2013-02-10 00:41:00,24.0,21.0,29.00,SW,227,0.0,0.0,87,0.00,,,0.01,,2013-02-10 09:41:00,
2013-02-10 00:51:00,23.0,20.0,29.00,SW,227,0.0,0.0,87,0.00,,,0.01,,2013-02-10 09:51:00,
2013-02-10 01:01:00,23.0,20.0,29.00,SW,227,0.0,0.0,87,0.00,,,0.01,,2013-02-10 10:01:00,
2013-02-10 01:11:00,23.0,20.0,29.00,SW,227,0.0,0.0,87,0.00,,,0.01,,2013-02-10 10:11:00,
2013-02-10 01:21:00,23.0,20.0,28.99,SW,227,0.0,1.0,88,0.00,,,0.01,,2013-02-10 10:21:00,
2013-02-10 01:31:00,23.0,20.0,28.99,SW,227,0.0,1.0,88,0.00,,,0.01,,2013-02-10 10:31:00,
2013-02-10 01:41:00,23.0,20.0,28.99,SW,227,0.0,1.0,88,0.00,,,0.01,,2013-02-10 10:41:00,
2013-02-10 01:51:00,25.0,22.0,28.97,SW,227,0.0,2.0,88,0.00,,,0.01,,2013-02-10 10:51:00,
2013-02-10 02:01:00,25.0,22.0,28.97,SW,227,0.0,2.0,88,0.00,,,0.01,,2013-02-10 11:01:00,
2013-02-10 02:11:00,25.0,22.0,28.97,SW,227,0.0,2.0,88,0.00,,,0.01,,2013-02-10 11:11:00,
2013-02-10 02:21:00,24.0,21.0,28.98,SW,227,0.0,1.0,87,0.00,,,0.01,,2013-02-10 11:21:00,
2013-02-10 02:32:00,24.0,21.0,28.98,SW,227,0.0,1.0,87,0.00,,,0.01,,2013-02-10 11:32:00,
2013-02-10 02:42:00,24.0,21.0,28.98,SW,227,0.0,1.0,87,0.00,,,0.01,,2013-02-10 11:42:00,
2013-02-10 02:52:00,24.0,20.0,28.97,SW,227,0.0,0.0,86,0.00,,,0.01,,2013-02-10 11:52:00,
2013-02-10 03:01:00,24.0,20.0,28.97,SW,227,0.0,0.0,86,0.00,,,0.01,,2013-02-10 12:01:00,
2013-02-10 03:12:00,24.0,20.0,28.97,SW,227,0.0,0.0,86,0.00,,,0.01,,2013-02-10 12:12:00,
2013-02-10 03:21:00,23.0,19.0,28.97,SW,227,0.0,0.0,85,0.00,,,0.01,,2013-02-10 12:21:00,
2013-02-10 03:32:00,23.0,19.0,28.97,SW,227,0.0,0.0,85,0.00,,,0.01,,2013-02-10 12:32:00,
2013-02-10 03:41:00,23.0,19.0,28.97,SW,227,0.0,0.0,85,0.00,,,0.01,,2013-02-10 12:41:00,
2013-02-10 03:52:00,22.0,18.0,28.96,SW,227,0.0,0.0,86,0.00,,,0.01,,2013-02-10 12:52:00,
2013-02-10 04:02:00,22.0,18.0,28.96,SW,227,0.0,0.0,86,0.00,,,0.01,,2013-02-10 13:02:00,
2013-02-10 04:11:00,22.0,18.0,28.96,SW,227,0.0,0.0,86,0.00,,,0.01,,2013-02-10 13:11:00,
2013-02-10 04:21:00,21.0,18.0,28.95,SW,227,0.0,1.0,87,0.00,,,0.01,,2013-02-10 13:21:00,
2013-02-10 04:31:00,21.0,18.0,28.95,SW,227,0.0,1.0,87,0.00,,,0.01,,2013-02-10 13:31:00,
2013-02-10 04:41:00,21.0,18.0,28.95,SW,227,0.0,1.0,87,0.00,,,0.01,,2013-02-10 13:41:00,
2013-02-10 04:51:00,21.0,17.0,28.94,SW,227,0.0,0.0,86,0.00,,,0.01,,2013-02-10 13:51:00,
2013-02-10 05:02:00,21.0,17.0,28.94,SW,227,0.0,0.0,86,0.00,,,0.01,,2013-02-10 14:02:00,
2013-02-10 05:11:00,21.0,17.0,28.94,SW,227,0.0,0.0,86,0.00,,,0.01,,2013-02-10 14:11:00,
2013-02-10 05:21:00,22.0,19.0,28.93,SW,227,0.0,0.0,89,0.00,,,0.01,,2013-02-10 14:21:00,
2013-02-10 05:31:00,22.0,19.0,28.93,SW,227,0.0,0.0,89,0.00,,,0.01,,2013-02-10 14:31:00,
2013-02-10 05:41:00,22.0,19.0,28.93,SW,227,0.0,0.0,89,0.00,,,0.01,,2013-02-10 14:41:00,
2013-02-10 05:52:00,24.0,21.0,28.94,SW,227,0.0,0.0,89,0.00,,,0.01,,2013-02-10 14:52:00,
2013-02-10 06:01:00,24.0,21.0,28.94,SW,227,0.0,0.0,89,0.00,,,0.01,,2013-02-10 15:01:00,
2013-02-10 06:11:00,24.0,21.0,28.94,SW,227,0.0,0.0,89,0.00,,,0.01,,2013-02-10 15:11:00,
2013-02-10 06:21:00,25.0,22.0,28.93,SW,227,0.0,0.0,88,0.00,,,0.01,,2013-02-10 15:21:00,
2013-02-10 06:31:00,25.0,22.0,28.93,SW,227,0.0,0.0,88,0.00,,,0.01,,2013-02-10 15:31:00,
2013-02-10 06:41:00,25.0,22.0,28.93,SW,227,0.0,0.0,88,0.00,,,0.01,,2013-02-10 15:41:00,
2013-02-10 06:51:00,26.0,23.0,28.93,SW,227,0.0,0.0,87,0.00,,,0.01,,2013-02-10 15:51:00,
2013-02-10 07:01:00,26.0,23.0,28.93,SW,227,0.0,0.0,87,0.00,,,0.01,,2013-02-10 16:01:00,
2013-02-10 07:11:00,26.0,23.0,28.93,SW,227,0.0,0.0,87,0.00,,,0.01,,2013-02-10 16:11:00,
2013-02-10 07:21:00,26.0,23.0,28.93,SW,227,0.0,0.0,87,0.00,,,0.01,,2013-02-10 16:21:00,
2013-02-10 07:32:00,26.0,23.0,28.93,SW,227,0.0,0.0,87,0.00,,,0.01,,2013-02-10 16:32:00,
2013-02-10 07:42:00,27.0,24.0,28.94,SW,227,0.0,0.0,87,0.00,,,0.01,,2013-02-10 16:42:00,
2013-02-10 07:51:00,27.0,24.0,28.94,SW,227,0.0,0.0,87,0.00,,,0.01,,2013-02-10 16:51:00,
2013-02-10 08:01:00,27.0,24.0,28.94,SW,227,0.0,0.0,87,0.00,,,0.01,,2013-02-10 17:01:00,
2013-02-10 08:11:00,27.0,24.0,28.94,SW,227,0.0,0.0,87,0.00,,,0.01,,2013-02-10 17:11:00,
2013-02-10 08:21:00,27.0,24.0,28.95,SW,227,0.0,0.0,88,0.00,,,0.01,,2013-02-10 17:21:00,
2013-02-10 08:32:00,27.0,24.0,28.95,SW,227,0.0,0.0,88,0.00,,,0.01,,2013-02-10 17:32:00,
2013-02-10 08:42:00,28.0,25.0,28.95,SW,227,0.0,2.0,87,0.00,,,0.01,,2013-02-10 17:42:00,
2013-02-10 08:52:00,28.0,25.0,28.95,SW,227,0.0,2.0,87,0.00,,,0.01,,2013-02-10 17:52:00,
2013-02-10 09:02:00,28.0,25.0,28.95,SW,227,0.0,2.0,87,0.00,,,0.01,,2013-02-10 18:02:00,
2013-02-10 09:11:00,28.0,25.0,28.96,SW,227,0.0,0.0,87,0.00,,,0.01,,2013-02-10 18:11:00,
2013-02-10 09:21:00,28.0,25.0,28.96,SW,227,0.0,0.0,87,0.00,,,0.01,,2013-02-10 18:21:00,
2013-02-10 09:32:00,28.0,25.0,28.96,SW,227,0.0,0.0,87,0.00,,,0.01,,2013-02-10 18:32:00,
2013-02-10 09:42:00,28.0,25.0,28.96,SW,227,0.0,0.0,87,0.00,,,0.01,,2013-02-10 18:42:00,
2013-02-10 09:51:00,28.0,25.0,28.97,SW,227,0.0,0.0,87,0.00,,,0.01,,2013-02-10 18:51:00,
2013-02-10 10:01:00,28.0,25.0,28.97,SW,227,0.0,0.0,87,0.00,,,0.01,,2013-02-10 19:01:00,
2013-02-10 10:11:00,29.0,26.0,28.97,SW,227,0.0,0.0,87,0.00,,,0.01,,2013-02-10 19:11:00,
2013-02-10 10:21:00,29.0,26.0,28.97,SW,227,0.0,0.0,87,0.00,,,0.01,,2013-02-10 19:21:00,
2013-02-10 10:32:00,29.0,26.0,28.97,SW,227,0.0,0.0,87,0.00,,,0.01,,2013-02-10 19:32:00,
2013-02-10 10:42:00,29.0,26.0,28.98,SW,227,0.0,1.0,88,0.00,,,0.01,,2013-02-10 19:42:00,
2013-02-10 10:51:00,29.0,26.0,28.98,SW,227,0.0,1.0,88,0.00,,,0.01,,2013-02-10 19:51:00,
2013-02-10 11:01:00,29.0,26.0,28.98,SW,227,0.0,1.0,88,0.00,,,0.01,,2013-02-10 20:01:00,
2013-02-10 11:11:00,29.0,26.0,28.98,SW,227,0.0,1.0,88,0.00,,,0.01,,2013-02-10 20:11:00,
2013-02-10 11:21:00,30.0,27.0,29.00,SW,227,0.0,0.0,89,0.00,,,0.01,,2013-02-10 20:21:00,
2013-02-10 11:32:00,30.0,27.0,29.00,SW,227,0.0,0.0,89,0.00,,,0.01,,2013-02-10 20:32:00,
2013-02-10 11:42:00,30.0,27.0,29.00,SW,227,0.0,0.0,89,0.00,,,0.01,,2013-02-10 20:42:00,
2013-02-10 11:52:00,31.0,27.0,29.00,SW,227,0.0,0.0,86,0.00,,,0.01,,2013-02-10 20:52:00,
2013-02-10 12:02:00,31.0,27.0,29.00,SW,227,0.0,0.0,86,0.00,,,0.01,,2013-02-10 21:02:00,
2013-02-10 12:11:00,31.0,27.0,29.00,SW,227,0.0,0.0,86,0.00,,,0.01,,2013-02-10 21:11:00,
2013-02-10 12:21:00,30.0,26.0,29.01,SW,227,0.0,0.0,84,0.00,,,0.01,,2013-02-10 21:21:00,
2013-02-10 12:32:00,30.0,26.0,29.01,SW,227,0.0,0.0,84,0.00,,,0.01,,2013-02-10 21:32:00,
2013-02-10 12:42:00,30.0,25.0,29.03,SW,227,0.0,0.0,83,0.00,,,0.01,,2013-02-10 21:42:00,
2013-02-10 12:51:00,30.0,25.0,29.03,SW,227,0.0,0.0,83,0.00,,,0.01,,2013-02-10 21:51:00,
2013-02-10 13:01:00,30.0,25.0,29.03,SW,227,0.0,0.0,83,0.00,,,0.01,,2013-02-10 22:01:00,
2013-02-10 13:11:00,31.0,27.0,29.04,SW,227,0.0,0.0,84,0.00,,,0.01,,2013-02-10 22:11:00,
2013-02-10 13:42:00,32.0,28.0,29.06,SW,227,0.0,0.0,84,0.00,,,0.01,,2013-02-10 22:42:00,
2013-02-10 13:52:00,32.0,28.0,29.06,SW,227,0.0,0.0,84,0.00,,,0.01,,2013-02-10 22:52:00,
2013-02-10 14:02:00,32.0,28.0,29.06,SW,227,0.0,0.0,84,0.00,,,0.01,,2013-02-10 23:02:00,
2013-02-10 14:21:00,31.0,26.0,29.08,SW,227,0.0,0.0,83,0.00,,,0.01,,2013-02-10 23:21:00,
2013-02-10 14:32:00,31.0,26.0,29.08,SW,227,0.0,0.0,83,0.00,,,0.01,,2013-02-10 23:32:00,
2013-02-10 14:41:00,29.0,25.0,29.11,WSW,252,0.0,3.0,83,0.00,,,0.01,,2013-02-10 23:41:00,
2013-02-10 14:52:00,29.0,25.0,29.11,WSW,252,0.0,3.0,83,0.00,,,0.01,,2013-02-10 23:52:00,
2013-02-10 15:01:00,29.0,25.0,29.11,WSW,252,0.0,3.0,83,0.00,,,0.01,,2013-02-11 00:01:00,
2013-02-10 15:21:00,21.0,15.0,29.14,West,275,1.0,3.0,77,0.00,,,0.01,,2013-02-11 00:21:00,
2013-02-10 15:32:00,21.0,15.0,29.14,West,275,1.0,3.0,77,0.00,,,0.01,,2013-02-11 00:32:00,
2013-02-10 15:41:00,21.0,15.0,29.14,West,275,1.0,3.0,77,0.00,,,0.01,,2013-02-11 00:41:00,
2013-02-10 15:51:00,20.0,15.0,29.15,WSW,250,0.0,3.0,81,0.00,,,0.00,,2013-02-11 00:51:00,
2013-02-10 16:01:00,20.0,15.0,29.15,WSW,250,0.0,3.0,81,0.00,,,0.00,,2013-02-11 01:01:00,
2013-02-10 16:11:00,20.0,15.0,29.15,WSW,250,0.0,3.0,81,0.00,,,0.00,,2013-02-11 01:11:00,
2013-02-10 16:21:00,16.0,10.0,29.19,SSW,203,0.0,1.0,78,0.00,,,0.00,,2013-02-11 01:21:00,
2013-02-10 16:32:00,16.0,10.0,29.19,SSW,203,0.0,1.0,78,0.00,,,0.00,,2013-02-11 01:32:00,
2013-02-10 16:41:00,16.0,10.0,29.19,SSW,203,0.0,1.0,78,0.00,,,0.00,,2013-02-11 01:41:00,
2013-02-10 16:52:00,14.0,9.0,29.21,NNW,329,1.0,9.0,79,0.00,,,0.00,,2013-02-11 01:52:00,
2013-02-10 17:01:00,14.0,9.0,29.21,NNW,329,1.0,9.0,79,0.00,,,0.00,,2013-02-11 02:01:00,
2013-02-10 17:11:00,14.0,9.0,29.21,NNW,329,1.0,9.0,79,0.00,,,0.00,,2013-02-11 02:11:00,
2013-02-10 17:21:00,13.0,8.0,29.25,South,190,0.0,2.0,81,0.00,,,0.00,,2013-02-11 02:21:00,
2013-02-10 17:31:00,13.0,8.0,29.25,South,190,0.0,2.0,81,0.00,,,0.00,,2013-02-11 02:31:00,
2013-02-10 17:41:00,13.0,8.0,29.28,South,191,0.0,2.0,81,0.00,,,0.00,,2013-02-11 02:41:00,
2013-02-10 17:52:00,13.0,8.0,29.28,South,191,0.0,2.0,81,0.00,,,0.00,,2013-02-11 02:52:00,
2013-02-10 18:01:00,13.0,8.0,29.28,South,191,0.0,2.0,81,0.00,,,0.00,,2013-02-11 03:01:00,
2013-02-10 18:11:00,13.0,8.0,29.28,South,191,0.0,2.0,81,0.00,,,0.00,,2013-02-11 03:11:00,
2013-02-10 18:21:00,13.0,8.0,29.30,East,89,0.0,0.0,81,0.00,,,0.00,,2013-02-11 03:21:00,
2013-02-10 18:31:00,13.0,8.0,29.30,East,89,0.0,0.0,81,0.00,,,0.00,,2013-02-11 03:31:00,
2013-02-10 18:41:00,12.0,7.0,29.32,East,88,0.0,0.0,81,0.00,,,0.00,,2013-02-11 03:41:00,
2013-02-10 18:51:00,12.0,7.0,29.32,East,88,0.0,0.0,81,0.00,,,0.00,,2013-02-11 03:51:00,
2013-02-10 19:01:00,12.0,7.0,29.32,East,88,0.0,0.0,81,0.00,,,0.00,,2013-02-11 04:01:00,
2013-02-10 19:11:00,12.0,7.0,29.32,East,88,0.0,0.0,81,0.00,,,0.00,,2013-02-11 04:11:00,
2013-02-10 19:21:00,11.0,7.0,29.34,East,89,0.0,0.0,82,0.00,,,0.00,,2013-02-11 04:21:00,
2013-02-10 19:31:00,11.0,7.0,29.34,East,89,0.0,0.0,82,0.00,,,0.00,,2013-02-11 04:31:00,
2013-02-10 19:42:00,11.0,7.0,29.34,East,89,0.0,0.0,82,0.00,,,0.00,,2013-02-11 04:42:00,
2013-02-10 19:51:00,11.0,7.0,29.35,East,89,0.0,0.0,83,0.00,,,0.00,,2013-02-11 04:51:00,
2013-02-10 20:01:00,11.0,7.0,29.35,East,89,0.0,0.0,83,0.00,,,0.00,,2013-02-11 05:01:00,
2013-02-10 20:11:00,11.0,7.0,29.35,East,89,0.0,0.0,83,0.00,,,0.00,,2013-02-11 05:11:00,
2013-02-10 20:22:00,11.0,7.0,29.36,East,89,0.0,0.0,83,0.00,,,0.00,,2013-02-11 05:22:00,
2013-02-10 20:31:00,11.0,7.0,29.36,East,89,0.0,0.0,83,0.00,,,0.00,,2013-02-11 05:31:00,
2013-02-10 20:42:00,11.0,7.0,29.36,East,89,0.0,0.0,83,0.00,,,0.00,,2013-02-11 05:42:00,
2013-02-10 20:52:00,11.0,7.0,29.37,East,89,0.0,0.0,82,0.00,,,0.00,,2013-02-11 05:52:00,
2013-02-10 21:01:00,11.0,7.0,29.37,East,89,0.0,0.0,82,0.00,,,0.00,,2013-02-11 06:01:00,
2013-02-10 21:11:00,11.0,7.0,29.37,East,89,0.0,0.0,82,0.00,,,0.00,,2013-02-11 06:11:00,
2013-02-10 21:21:00,9.0,5.0,29.39,East,88,0.0,0.0,82,0.00,,,0.00,,2013-02-11 06:21:00,
2013-02-10 21:32:00,9.0,5.0,29.39,East,88,0.0,0.0,82,0.00,,,0.00,,2013-02-11 06:32:00,
2013-02-10 21:42:00,9.0,5.0,29.39,East,88,0.0,0.0,82,0.00,,,0.00,,2013-02-11 06:42:00,
2013-02-10 21:51:00,8.0,4.0,29.40,East,88,0.0,0.0,82,0.00,,,0.00,,2013-02-11 06:51:00,
2013-02-10 22:01:00,8.0,4.0,29.40,East,88,0.0,0.0,82,0.00,,,0.00,,2013-02-11 07:01:00,
2013-02-10 22:11:00,8.0,4.0,29.40,East,88,0.0,0.0,82,0.00,,,0.00,,2013-02-11 07:11:00,
2013-02-10 22:21:00,8.0,4.0,29.41,East,88,0.0,0.0,83,0.00,,,0.00,,2013-02-11 07:21:00,
2013-02-10 22:32:00,8.0,4.0,29.41,East,88,0.0,0.0,83,0.00,,,0.00,,2013-02-11 07:32:00,
2013-02-10 22:41:00,8.0,4.0,29.41,East,88,0.0,0.0,83,0.00,,,0.00,,2013-02-11 07:41:00,
2013-02-10 22:51:00,7.0,3.0,29.43,East,88,0.0,1.0,83,0.00,,,0.00,,2013-02-11 07:51:00,
2013-02-10 23:01:00,7.0,3.0,29.43,East,88,0.0,1.0,83,0.00,,,0.00,,2013-02-11 08:01:00,
2013-02-10 23:11:00,7.0,3.0,29.43,East,88,0.0,1.0,83,0.00,,,0.00,,2013-02-11 08:11:00,
2013-02-10 23:21:00,8.0,4.0,29.43,East,88,0.0,0.0,84,0.00,,,0.00,,2013-02-11 08:21:00,
2013-02-10 23:31:00,8.0,4.0,29.43,East,88,0.0,0.0,84,0.00,,,0.00,,2013-02-11 08:31:00,
2013-02-10 23:42:00,9.0,6.0,29.45,East,89,0.0,1.0,86,0.00,,,0.00,,2013-02-11 08:42:00,
2013-02-10 23:52:00,9.0,6.0,29.45,East,89,0.0,1.0,86,0.00,,,0.00,,2013-02-11 08:52:00,